Temp
-15 -15 -14 -14 -14 -14 -14 -14 -14 -14 -14 -14 -14 -14 -13 -13 -13 -13 -13 -13 -13 -13 -12 -12 -12 -12 -12 -12 -12 -11 -11 -11 -11 -11 -10 -10 -10 -11 -11 -11 -11 -11 -11 -12 -11 -10 -11 -11 -10 -10 -10 -10
-15 -15 -15 -15 -15 -15 -15 -15 -14 -14 -14 -14 -14 -14 -14 -14 -13 -13 -13 -13 -13 -13 -13 -13 -12 -12 -12 -12 -12 -12 -12 -12 -11 -11 -11 -10 -10 -11 -11 -11 -11 -11 -11 -12 -11 -11 -11 -11 -11 -11 -11 -11
-15 -15 -15 -15 -15 -15 -15 -15 -15 -15 -15 -15 -15 -15 -14 -14 -14 -14 -14 -14 -14 -14 -14 -13 -13 -13 -13 -13 -12 -12 -12 -12 -12 -12 -11 -11 -11 -11 -11 -11 -11 -11 -11 -12 -12 -11 -11 -11 -11 -11 -11 -11
-16 -16 -16 -16 -16 -16 -15 -15 -15 -15 -15 -15 -15 -15 -15 -15 -14 -14 -14 -14 -14 -14 -14 -14 -14 -14 -13 -13 -13 -13 -13 -12 -12 -12 -12 -11 -11 -11 -11 -11 -11 -11 -12 -12 -12 -11 -11 -12 -12 -12 -12 -12
-16 -16 -16 -16 -16 -16 -16 -16 -16 -16 -16 -15 -15 -15 -15 -15 -15 -15 -15 -15 -15 -15 -15 -14 -14 -14 -14 -14 -14 -13 -13 -13 -13 -13 -13 -12 -12 -12 -12 -12 -11 -11 -12 -12 -12 -12 -12 -12 -12 -12 -12 -12
-16 -16 -16 -16 -16 -16 -16 -16 -16 -16 -16 -16 -16 -16 -16 -15 -15 -15 -15 -15 -15 -15 -15 -15 -15 -15 -15 -14 -14 -14 -14 -14 -13 -13 -13 -13 -13 -12 -12 -12 -12 -12 -12 -12 -13 -13 -12 -12 -12 -12 -12 -12
-17 -17 -17 -17 -17 -17 -17 -17 -17 -16 -16 -16 -16 -16 -16 -16 -16 -16 -16 -16 -15 -15 -15 -15 -15 -15 -15 -15 -15 -14 -14 -14 -14 -14 -14 -14 -13 -13 -13 -13 -12 -12 -13 -13 -13 -13 -13 -12 -12 -12 -12 -12
-17 -17 -17 -17 -17 -17 -17 -17 -17 -17 -17 -17 -17 -17 -16 -16 -16 -16 -16 -16 -16 -16 -16 -16 -16 -15 -15 -15 -15 -15 -15 -15 -15 -14 -14 -14 -14 -13 -13 -13 -13 -13 -13 -13 -13 -14 -13 -12 -12 -12 -12 -12
-18 -18 -18 -18 -18 -18 -18 -18 -18 -18 -17 -17 -17 -17 -17 -17 -17 -17 -16 -16 -16 -16 -16 -16 -16 -16 -16 -15 -15 -15 -15 -15 -15 -15 -15 -15 -14 -14 -14 -13 -13 -13 -14 -14 -14 -14 -13 -13 -12 -12 -12 -13
-18 -18 -18 -18 -18 -18 -18 -18 -18 -18 -18 -18 -18 -18 -18 -18 -17 -17 -17 -17 -16 -16 -16 -16 -16 -16 -16 -16 -16 -16 -16 -15 -15 -15 -15 -15 -14 -14 -14 -14 -14 -14 -14 -14 -14 -14 -13 -13 -13 -13 -12 -13
-19 -19 -19 -19 -19 -18 -18 -18 -19 -19 -19 -19 -18 -18 -18 -18 -18 -18 -18 -18 -17 -17 -17 -17 -17 -17 -17 -16 -16 -16 -16 -16 -15 -15 -15 -15 -15 -14 -14 -14 -14 -14 -14 -14 -14 -14 -14 -13 -13 -13 -13 -13
-19 -19 -19 -19 -19 -19 -19 -19 -19 -19 -19 -19 -19 -19 -19 -19 -19 -19 -18 -18 -18 -17 -17 -17 -17 -17 -17 -17 -17 -16 -16 -16 -16 -16 -15 -15 -15 -15 -15 -14 -14 -14 -14 -15 -15 -15 -14 -14 -13 -13 -13 -13
-19 -19 -19 -19 -19 -19 -19 -19 -19 -19 -19 -19 -19 -19 -19 -19 -19 -19 -19 -19 -18 -18 -18 -18 -17 -17 -17 -17 -17 -17 -17 -17 -16 -16 -16 -16 -16 -15 -15 -15 -14 -14 -14 -15 -15 -15 -15 -14 -14 -13 -13 -13
-20 -20 -20 -20 -20 -20 -20 -19 -19 -19 -19 -19 -19 -19 -19 -19 -19 -19 -19 -19 -19 -19 -18 -18 -18 -18 -18 -18 -18 -17 -17 -17 -17 -17 -16 -16 -16 -16 -15 -15 -15 -15 -15 -15 -15 -15 -15 -15 -14 -14 -14 -13
-20 -20 -20 -20 -20 -20 -20 -20 -20 -20 -19 -19 -19 -19 -19 -19 -19 -19 -19 -19 -19 -19 -19 -19 -19 -18 -18 -18 -18 -18 -18 -17 -17 -17 -17 -17 -16 -16 -16 -16 -15 -15 -15 -15 -15 -15 -15 -15 -15 -14 -14 -14
-21 -21 -21 -21 -21 -21 -20 -20 -20 -20 -20 -20 -20 -20 -20 -19 -19 -19 -19 -19 -19 -19 -19 -19 -19 -19 -19 -18 -18 -18 -18 -18 -18 -18 -17 -17 -17 -16 -16 -16 -16 -15 -15 -15 -15 -15 -15 -15 -15 -14 -14 -14
-22 -22 -22 -22 -22 -21 -21 -21 -21 -21 -21 -21 -21 -20 -20 -20 -20 -20 -19 -19 -19 -19 -19 -19 -19 -19 -19 -19 -19 -19 -18 -18 -18 -18 -18 -17 -17 -17 -17 -16 -16 -16 -16 -16 -16 -16 -16 -15 -15 -15 -15 -14
-22 -22 -22 -22 -22 -22 -22 -22 -22 -22 -21 -21 -21 -21 -21 -21 -20 -20 -20 -20 -20 -19 -19 -19 -19 -19 -19 -19 -19 -19 -19 -19 -19 -18 -18 -18 -18 -17 -17 -17 -17 -16 -16 -16 -17 -16 -16 -16 -16 -15 -15 -15
-22 -22 -22 -22 -22 -22 -22 -22 -22 -22 -22 -22 -21 -21 -21 -21 -21 -21 -21 -20 -20 -20 -20 -20 -19 -19 -19 -19 -19 -19 -19 -19 -19 -19 -19 -18 -18 -18 -17 -17 -17 -17 -17 -17 -17 -17 -17 -17 -17 -16 -16 -15
-23 -22 -22 -22 -22 -22 -22 -22 -22 -22 -22 -22 -22 -22 -22 -22 -22 -22 -21 -21 -21 -20 -20 -20 -20 -20 -20 -20 -20 -20 -20 -20 -20 -20 -19 -19 -19 -18 -18 -18 -17 -17 -17 -17 -17 -18 -18 -18 -17 -17 -16 -16
-23 -23 -22 -22 -22 -22 -22 -22 -22 -22 -22 -23 -23 -23 -23 -23 -22 -22 -22 -22 -22 -21 -21 -21 -20 -20 -20 -20 -20 -20 -20 -20 -20 -20 -20 -20 -19 -19 -19 -18 -18 -17 -17 -17 -17 -18 -18 -18 -18 -18 -17 -17
-23 -23 -23 -23 -23 -22 -22 -22 -22 -22 -22 -22 -22 -23 -23 -23 -23 -23 -23 -22 -22 -22 -22 -21 -21 -21 -21 -21 -21 -20 -20 -20 -20 -20 -20 -20 -20 -20 -19 -19 -19 -18 -18 -17 -17 -18 -18 -18 -19 -19 -19 -18
-23 -23 -23 -23 -23 -23 -23 -22 -22 -22 -22 -22 -22 -22 -22 -23 -23 -23 -23 -23 -23 -23 -22 -22 -21 -21 -21 -21 -21 -21 -20 -20 -20 -21 -20 -20 -20 -20 -20 -20 -19 -19 -18 -18 -18 -18 -19 -19 -19 -19 -19 -19
-24 -23 -23 -23 -23 -23 -23 -23 -22 -22 -22 -22 -22 -22 -22 -22 -22 -23 -23 -23 -23 -23 -23 -23 -22 -22 -21 -21 -21 -21 -21 -21 -21 -20 -21 -21 -21 -21 -21 -20 -20 -20 -19 -19 -19 -18 -19 -19 -19 -19 -19 -19
-24 -24 -24 -23 -23 -23 -23 -23 -23 -22 -22 -22 -22 -22 -22 -22 -22 -22 -22 -22 -23 -23 -24 -24 -23 -22 -22 -22 -21 -21 -21 -21 -21 -21 -21 -21 -21 -21 -21 -21 -21 -21 -20 -20 -20 -19 -19 -19 -20 -19 -19 -19
-25 -25 -24 -24 -24 -23 -23 -23 -23 -23 -22 -22 -22 -22 -22 -22 -22 -22 -22 -22 -22 -22 -23 -23 -24 -24 -23 -22 -22 -22 -22 -21 -21 -21 -21 -21 -21 -21 -21 -21 -21 -21 -21 -21 -21 -20 -19 -20 -20 -20 -20 -19
-26 -26 -25 -25 -25 -24 -24 -24 -24 -23 -23 -23 -23 -23 -23 -22 -22 -22 -22 -22 -22 -22 -22 -23 -23 -24 -24 -24 -23 -22 -22 -22 -21 -21 -21 -21 -21 -21 -21 -21 -22 -22 -22 -21 -22 -21 -21 -21 -21 -21 -21 -20
-27 -26 -26 -26 -25 -25 -25 -24 -24 -24 -24 -24 -23 -23 -23 -23 -23 -22 -22 -22 -22 -22 -22 -22 -23 -23 -24 -24 -24 -23 -22 -22 -22 -22 -22 -22 -22 -21 -21 -21 -22 -22 -22 -22 -22 -22 -22 -22 -22 -22 -21 -20
-27 -27 -26 -26 -26 -25 -25 -25 -25 -24 -24 -24 -24 -24 -23 -23 -23 -23 -23 -23 -22 -22 -22 -22 -22 -22 -23 -23 -24 -24 -23 -22 -22 -22 -22 -22 -22 -22 -22 -21 -21 -22 -22 -22 -22 -22 -23 -23 -22 -22 -22 -21
-28 -27 -27 -27 -26 -26 -25 -25 -25 -25 -25 -25 -25 -25 -24 -24 -24 -24 -23 -23 -23 -23 -22 -22 -22 -22 -22 -23 -23 -24 -24 -24 -23 -22 -22 -22 -22 -22 -22 -22 -22 -22 -22 -23 -23 -22 -22 -22 -22 -22 -23 -22
-28 -28 -28 -27 -27 -26 -26 -26 -26 -27 -27 -27 -26 -26 -26 -26 -25 -25 -25 -24 -24 -24 -23 -23 -23 -22 -22 -22 -23 -23 -23 -24 -24 -23 -22 -22 -22 -22 -22 -22 -22 -22 -22 -23 -23 -23 -23 -22 -22 -22 -23 -23
Height
5708 5708 5708 5708 5708 5708 5708 5707 5708 5709 5710 5710 5710 5710 5711 5711 5713 5714 5715 5716 5717 5717 5718 5719 5720 5720 5721 5722 5724 5725 5726 5727 5727 5727 5729 5731 5733 5734 5736 5738 5740 5744 5745 5743 5745 5748 5748 5749 5750 5751 5752 5754
5702 5702 5702 5702 5702 5702 5702 5701 5702 5703 5703 5703 5704 5704 5705 5705 5707 5708 5708 5710 5711 5711 5711 5713 5714 5715 5715 5716 5717 5718 5719 5721 5721 5721 5723 5725 5726 5728 5729 5732 5734 5737 5740 5739 5739 5743 5743 5744 5746 5746 5747 5748
5696 5696 5695 5695 5695 5695 5695 5696 5696 5696 5697 5697 5697 5698 5699 5699 5701 5702 5702 5703 5704 5704 5705 5706 5707 5709 5709 5709 5711 5712 5713 5714 5715 5715 5717 5719 5720 5722 5723 5725 5727 5730 5734 5734 5734 5738 5739 5739 5741 5741 5742 5743
5690 5689 5689 5689 5689 5689 5689 5689 5689 5690 5690 5690 5690 5691 5692 5693 5694 5695 5696 5697 5697 5698 5699 5699 5701 5702 5702 5703 5704 5706 5707 5708 5709 5709 5710 5713 5714 5715 5717 5718 5720 5724 5727 5728 5728 5731 5733 5734 5735 5736 5737 5738
5684 5683 5683 5683 5683 5682 5682 5682 5682 5683 5683 5682 5684 5684 5685 5686 5687 5688 5689 5690 5691 5692 5693 5693 5695 5696 5696 5697 5698 5699 5701 5702 5703 5703 5703 5706 5708 5709 5711 5713 5714 5718 5720 5723 5723 5723 5726 5728 5730 5731 5732 5733
5677 5677 5677 5677 5676 5676 5676 5675 5675 5676 5675 5675 5676 5677 5677 5679 5680 5681 5682 5683 5684 5685 5686 5687 5688 5689 5690 5691 5691 5693 5694 5696 5696 5696 5697 5698 5701 5703 5705 5707 5709 5712 5714 5716 5717 5716 5718 5721 5724 5726 5727 5728
5671 5670 5670 5670 5670 5670 5669 5669 5669 5669 5669 5669 5669 5669 5670 5671 5672 5674 5675 5676 5677 5678 5679 5681 5681 5682 5684 5684 5684 5686 5687 5689 5690 5690 5690 5690 5693 5697 5698 5700 5704 5707 5708 5709 5710 5708 5710 5714 5718 5720 5721 5723
5664 5663 5663 5663 5663 5663 5662 5662 5662 5662 5662 5662 5662 5662 5662 5663 5664 5666 5667 5669 5670 5671 5672 5673 5674 5675 5677 5678 5678 5679 5680 5682 5683 5683 5684 5683 5686 5690 5691 5694 5698 5701 5701 5702 5703 5701 5703 5707 5711 5713 5715 5716
5657 5657 5656 5656 5655 5655 5655 5655 5655 5655 5655 5655 5655 5655 5655 5656 5657 5658 5658 5661 5662 5664 5665 5667 5668 5668 5670 5672 5672 5672 5673 5675 5676 5676 5677 5676 5679 5683 5685 5687 5691 5694 5695 5695 5695 5695 5697 5701 5704 5706 5709 5711
5649 5649 5649 5649 5648 5648 5647 5647 5647 5647 5647 5648 5648 5648 5648 5648 5649 5650 5651 5652 5654 5656 5658 5660 5661 5662 5663 5664 5665 5666 5666 5667 5668 5669 5670 5670 5672 5676 5678 5680 5684 5687 5688 5688 5688 5689 5691 5694 5697 5700 5702 5705
5641 5640 5640 5641 5641 5641 5640 5640 5639 5639 5639 5639 5640 5641 5641 5641 5642 5643 5644 5644 5645 5647 5649 5652 5653 5655 5656 5657 5659 5659 5659 5660 5661 5662 5663 5663 5665 5669 5671 5673 5676 5679 5680 5682 5682 5683 5685 5687 5690 5693 5695 5698
5633 5633 5632 5631 5632 5632 5632 5632 5631 5631 5630 5630 5631 5632 5633 5634 5634 5635 5636 5637 5638 5639 5640 5643 5645 5647 5648 5650 5651 5652 5652 5654 5655 5656 5656 5657 5659 5661 5664 5666 5669 5671 5673 5674 5675 5676 5679 5681 5683 5686 5689 5691
5625 5625 5624 5623 5622 5622 5622 5622 5622 5622 5622 5621 5621 5622 5623 5625 5626 5627 5628 5629 5630 5632 5632 5634 5636 5638 5640 5642 5643 5643 5645 5648 5648 5649 5650 5650 5652 5654 5657 5659 5661 5664 5665 5666 5668 5670 5672 5675 5677 5679 5682 5685
5616 5615 5615 5614 5613 5612 5612 5612 5612 5613 5613 5613 5612 5612 5613 5614 5616 5617 5619 5620 5621 5623 5624 5625 5627 5629 5631 5633 5635 5635 5637 5640 5641 5642 5642 5643 5646 5647 5650 5652 5654 5656 5658 5659 5660 5662 5665 5667 5670 5673 5676 5678
5606 5605 5605 5604 5604 5603 5603 5603 5603 5603 5604 5604 5604 5604 5604 5604 5605 5607 5608 5610 5611 5613 5615 5617 5618 5620 5621 5623 5626 5626 5629 5632 5632 5634 5635 5636 5639 5640 5642 5645 5646 5648 5650 5652 5654 5655 5657 5660 5663 5666 5670 5672
5596 5595 5595 5594 5593 5593 5593 5593 5593 5594 5594 5595 5595 5595 5595 5595 5596 5597 5598 5600 5601 5603 5605 5607 5609 5611 5612 5614 5616 5617 5620 5623 5624 5626 5627 5629 5631 5633 5635 5636 5638 5641 5643 5645 5647 5649 5650 5652 5655 5659 5662 5665
5586 5586 5585 5584 5583 5583 5583 5583 5583 5583 5583 5583 5584 5584 5585 5586 5586 5587 5588 5590 5592 5593 5595 5598 5600 5601 5603 5604 5606 5608 5610 5613 5615 5617 5620 5621 5622 5625 5627 5629 5631 5633 5635 5638 5639 5641 5643 5645 5648 5650 5654 5657
5575 5574 5574 5574 5573 5573 5572 5572 5572 5572 5572 5572 5573 5573 5574 5575 5575 5576 5577 5579 5581 5583 5585 5588 5590 5592 5594 5595 5597 5599 5601 5603 5606 5607 5611 5613 5614 5616 5618 5621 5624 5626 5628 5631 5632 5633 5635 5637 5639 5642 5645 5648
5563 5562 5562 5561 5561 5561 5561 5561 5560 5560 5560 5561 5562 5563 5563 5564 5564 5564 5566 5567 5569 5572 5574 5577 5580 5582 5584 5586 5588 5590 5591 5594 5597 5598 5601 5604 5606 5608 5610 5613 5616 5619 5621 5622 5624 5626 5627 5629 5631 5633 5637 5640
5550 5549 5548 5548 5548 5548 5548 5548 5549 5550 5550 5551 5552 5552 5552 5552 5552 5553 5554 5556 5557 5560 5563 5565 5568 5571 5573 5576 5578 5580 5582 5584 5587 5589 5591 5594 5596 5599 5602 5604 5607 5611 5613 5614 5616 5618 5619 5621 5623 5626 5629 5632
5537 5536 5536 5536 5535 5536 5536 5537 5538 5539 5540 5540 5541 5540 5541 5541 5541 5543 5544 5545 5546 5548 5551 5553 5557 5560 5562 5565 5567 5570 5572 5574 5577 5579 5581 5585 5587 5590 5593 5596 5598 5602 5604 5606 5609 5610 5612 5614 5615 5618 5621 5623
5524 5524 5523 5523 5523 5523 5523 5524 5524 5526 5527 5527 5528 5529 5530 5530 5531 5532 5533 5534 5535 5536 5539 5541 5544 5548 5550 5553 5556 5559 5562 5565 5567 5568 5571 5575 5578 5580 5583 5587 5590 5593 5596 5598 5600 5601 5604 5606 5607 5610 5612 5614
5510 5509 5508 5507 5507 5507 5508 5508 5509 5510 5512 5514 5516 5517 5518 5518 5519 5520 5521 5523 5524 5524 5526 5529 5532 5535 5538 5541 5544 5547 5550 5553 5556 5558 5560 5564 5567 5570 5573 5577 5581 5584 5587 5589 5591 5593 5595 5596 5599 5601 5603 5605
5496 5494 5493 5492 5492 5492 5492 5493 5494 5495 5497 5499 5501 5502 5503 5505 5506 5507 5509 5510 5512 5513 5514 5516 5518 5522 5524 5527 5531 5535 5539 5541 5544 5547 5550 5553 5556 5559 5563 5568 5572 5575 5578 5579 5581 5584 5585 5587 5589 5592 5594 5597
5481 5479 5478 5477 5477 5478 5478 5477 5477 5479 5481 5483 5484 5485 5486 5488 5490 5492 5495 5497 5499 5500 5502 5504 5505 5507 5510 5513 5517 5521 5525 5529 5532 5535 5538 5542 5545 5549 5553 5558 5563 5566 5569 5569 5570 5572 5577 5580 5580 5582 5585 5588
5467 5465 5463 5462 5463 5463 5462 5462 5461 5462 5465 5466 5466 5467 5468 5469 5472 5475 5479 5481 5483 5486 5489 5492 5493 5494 5495 5498 5502 5507 5511 5516 5520 5523 5526 5530 5534 5538 5542 5547 5553 5556 5557 5559 5560 5564 5569 5571 5572 5572 5575 5579
5452 5450 5448 5447 5447 5447 5446 5446 5446 5446 5448 5449 5449 5450 5450 5451 5454 5457 5460 5463 5466 5469 5474 5478 5479 5480 5481 5483 5486 5491 5497 5502 5506 5511 5514 5517 5521 5525 5530 5537 5542 5544 5546 5549 5554 5557 5556 5558 5562 5563 5565 5570
5436 5434 5433 5432 5432 5432 5431 5431 5432 5432 5432 5433 5431 5432 5433 5434 5436 5438 5440 5444 5448 5451 5455 5459 5462 5464 5467 5469 5472 5475 5480 5487 5492 5497 5501 5504 5508 5513 5517 5524 5530 5533 5535 5539 5544 5546 5545 5549 5552 5553 5558 5565
5421 5418 5416 5416 5416 5416 5416 5417 5418 5417 5416 5415 5413 5414 5416 5416 5417 5419 5421 5425 5429 5431 5434 5439 5443 5445 5449 5454 5458 5460 5464 5470 5476 5482 5487 5491 5495 5500 5504 5510 5516 5521 5524 5528 5533 5535 5537 5541 5542 5546 5554 5558
5405 5401 5399 5398 5398 5400 5401 5402 5403 5401 5397 5396 5396 5396 5397 5397 5397 5398 5401 5405 5408 5411 5414 5418 5423 5426 5430 5436 5442 5446 5450 5454 5460 5465 5471 5476 5481 5486 5491 5496 5501 5507 5512 5516 5521 5523 5527 5531 5534 5541 5547 5547
5389 5385 5382 5381 5381 5383 5385 5385 5385 5383 5379 5377 5378 5378 5379 5379 5379 5379 5381 5384 5387 5389 5393 5398 5403 5408 5413 5418 5424 5429 5435 5440 5445 5449 5455 5460 5465 5471 5478 5482 5487 5494 5499 5503 5508 5512 5516 5521 5525 5530 5535 5537
Wind_Speed
48 49 50 50 51 51 51 52 53 53 53 52 52 54 55 56 56 56 55 55 55 56 57 57 57 58 58 58 57 57 58 58 58 59 58 57 55 53 53 53 52 51 50 53 54 53 54 55 55 56 56 56
48 49 49 50 50 50 51 51 52 51 52 52 51 52 53 54 55 55 54 54 54 55 56 57 57 58 58 59 58 58 59 59 59 60 60 59 58 56 55 54 53 52 51 53 55 54 55 55 55 55 56 56
49 50 50 50 51 51 51 52 52 52 52 52 52 52 53 53 54 54 54 54 53 54 55 56 56 56 57 58 59 59 59 60 60 61 61 61 60 59 57 57 56 54 52 53 55 55 55 56 55 55 56 56
50 50 51 51 51 52 52 52 53 53 53 54 53 53 53 53 54 54 54 54 53 53 53 54 55 55 56 57 58 59 59 60 60 61 62 62 62 61 60 59 58 56 54 53 55 56 56 56 56 55 56 56
52 52 52 52 53 53 53 53 54 54 54 55 55 54 55 54 55 55 54 54 54 54 53 54 54 54 55 56 57 57 58 59 60 61 62 63 63 63 62 61 60 58 56 54 55 58 57 57 57 57 56 56
55 55 55 54 55 55 55 55 55 55 55 56 56 56 56 56 55 55 55 55 55 55 54 54 54 54 54 55 56 57 57 58 59 61 62 64 64 64 63 62 62 60 58 57 56 58 59 58 58 58 57 57
56 56 56 56 56 56 56 57 57 57 57 57 57 57 57 57 57 56 56 56 56 56 56 55 56 56 55 55 56 56 57 57 59 61 62 64 65 64 65 64 63 61 60 59 58 59 61 61 60 59 58 58
55 56 56 56 56 57 57 57 57 57 57 57 58 58 58 59 59 58 58 58 57 57 57 56 56 57 57 56 57 57 57 57 58 60 62 65 65 65 65 65 64 61 61 62 61 61 62 62 62 61 60 60
55 56 56 56 56 57 57 57 57 57 57 57 57 58 58 59 59 59 60 60 59 58 58 58 57 58 58 58 58 59 59 58 58 59 61 64 65 65 65 66 65 63 62 63 63 63 64 64 63 63 62 61
57 57 57 57 57 57 57 57 57 57 57 57 57 57 58 59 59 59 60 61 61 60 59 59 59 59 59 59 59 60 61 61 60 60 61 63 64 65 66 66 65 64 64 64 65 65 65 65 64 64 64 62
59 59 59 59 59 58 58 58 58 58 58 58 58 58 58 59 60 60 60 61 62 62 61 60 59 60 60 61 60 61 62 62 62 62 62 63 63 64 65 67 67 65 65 65 66 66 65 66 66 66 65 64
61 62 62 62 62 61 61 61 61 60 60 60 60 60 60 60 60 61 62 62 63 63 63 62 61 61 61 62 62 62 62 63 64 64 64 64 63 64 64 66 67 67 66 66 67 67 67 66 67 67 67 66
64 64 64 64 64 65 65 64 65 64 64 64 63 63 63 63 63 63 63 64 64 64 64 65 64 63 63 63 63 64 64 63 64 65 65 65 64 64 64 65 66 67 67 67 67 68 68 68 67 68 68 68
66 66 67 67 67 67 68 68 68 68 69 68 68 68 67 67 67 66 66 66 66 66 66 66 67 66 66 65 64 65 65 65 65 66 66 66 66 65 65 65 66 67 67 68 69 69 69 69 69 69 69 69
67 67 68 68 69 69 70 70 71 71 72 72 72 72 72 72 71 71 70 69 69 69 68 68 68 68 68 68 67 67 67 67 67 67 68 68 67 67 66 66 67 67 67 68 69 70 70 70 71 71 70 70
67 67 68 69 69 70 71 71 71 71 72 72 73 74 74 75 75 75 75 74 73 73 72 71 71 71 71 71 70 70 69 69 69 69 69 69 69 68 68 68 68 68 68 68 68 69 70 71 71 72 72 71
68 68 69 69 70 70 71 72 72 72 72 72 73 74 74 75 76 77 78 78 77 77 76 75 74 73 73 73 72 72 72 71 71 71 70 70 71 70 70 70 69 69 68 68 68 68 69 70 71 72 72 72
72 72 72 72 72 72 72 73 73 73 74 74 75 76 76 77 78 79 80 80 80 80 80 79 78 77 76 76 76 75 74 73 73 74 73 72 72 72 72 71 70 70 69 67 67 68 68 69 70 71 72 73
74 75 76 76 76 76 76 76 76 76 77 77 77 77 78 79 80 80 81 82 82 82 82 82 82 81 80 79 78 78 77 76 75 76 75 74 74 74 73 73 72 71 71 69 68 67 68 69 69 71 72 73
77 78 78 79 80 80 81 81 80 80 80 79 79 79 79 80 80 81 82 83 84 84 84 84 83 83 83 83 82 81 80 79 78 78 77 76 76 75 75 75 74 73 72 72 70 68 68 69 69 69 71 72
80 81 82 83 83 84 85 85 84 84 83 82 82 81 82 82 82 83 83 83 84 85 86 86 85 85 85 85 85 84 83 82 82 81 80 79 78 77 76 76 76 75 75 74 73 70 69 69 69 69 70 71
83 84 84 85 86 86 87 87 88 88 87 87 86 85 85 84 85 85 85 85 86 87 87 88 88 87 87 86 87 87 87 85 84 84 83 82 80 79 78 77 77 77 77 76 75 73 71 70 70 70 70 71
86 86 87 87 88 89 90 91 91 92 92 92 91 90 90 89 88 87 87 87 88 89 90 91 90 90 90 90 89 89 89 89 87 86 86 85 83 82 80 79 79 78 78 78 77 75 74 73 72 72 71 72
88 89 90 91 92 92 93 94 95 96 95 95 95 95 95 94 93 92 91 90 90 90 91 93 94 94 93 93 92 91 91 91 91 90 89 88 87 85 82 81 80 80 79 80 80 79 77 75 74 74 74 74
89 91 93 94 95 95 96 97 98 99 99 99 99 99 99 99 99 98 97 96 94 93 92 93 95 97 97 97 96 95 94 93 93 93 93 91 90 88 85 83 81 80 80 79 81 82 80 77 76 77 77 76
92 93 95 96 97 98 98 99 101 101 102 102 102 103 103 104 104 103 102 101 100 99 97 95 95 97 99 100 100 99 97 97 96 95 95 95 93 91 89 86 83 82 82 81 82 83 81 79 78 78 78 78
94 96 97 98 99 99 101 102 103 103 104 104 105 106 107 107 107 107 107 107 106 104 102 100 99 99 99 101 103 103 102 100 99 98 97 97 96 95 93 90 86 85 85 84 83 82 81 80 80 79 79 80
96 98 99 100 101 101 103 104 105 106 106 107 108 109 110 110 111 111 111 111 111 110 109 107 105 104 103 102 103 106 106 105 103 102 101 100 99 98 97 94 90 88 86 86 85 83 80 77 79 82 82 82
98 100 101 102 103 104 104 105 106 107 108 109 111 112 112 113 114 114 115 115 115 115 114 113 112 111 109 107 105 105 108 109 108 106 104 103 102 101 100 98 96 92 89 87 87 86 83 77 76 78 79 80
99 101 102 103 104 105 105 104 104 104 105 106 108 110 111 112 113 115 115 116 117 118 119 118 118 116 115 113 111 108 108 109 111 111 109 107 106 104 102 101 100 97 94 91 89 88 88 84 78 74 73 74
96 97 99 99 100 99 98 96 95 94 93 94 95 96 97 99 102 105 107 109 111 113 116 119 120 121 120 118 116 114 112 110 110 112 113 111 109 107 106 104 102 100 98 95 92 90 90 89 86 82 78 75
Wind_Direction
264 264 264 264 264 264 264 264 263 263 262 261 261 261 261 261 261 260 260 259 258 258 257 257 257 257 257 257 256 256 255 255 255 255 253 253 252 251 251 250 249 247 245 246 246 244 243 242 241 240 239 239
265 264 264 264 263 263 263 263 263 263 262 262 261 260 260 260 260 259 259 259 258 257 257 256 256 256 257 257 256 256 255 255 254 254 253 252 251 250 249 249 248 246 244 245 245 243 242 241 240 239 238 237
265 264 264 264 264 264 263 263 263 262 262 261 261 260 259 259 259 258 258 258 257 257 256 256 256 256 256 256 256 255 255 254 254 254 253 252 251 249 248 247 246 245 243 243 244 242 240 240 238 238 238 237
265 264 264 264 263 264 263 263 262 262 261 261 260 260 259 259 258 258 257 257 257 257 256 256 255 255 255 255 255 255 254 254 253 253 253 251 250 249 247 246 245 244 242 241 242 241 239 238 237 236 236 236
265 264 264 263 263 263 263 263 263 262 261 261 260 260 259 258 258 257 257 257 257 257 256 256 255 255 255 254 254 254 253 253 252 251 251 251 249 248 246 245 244 243 241 239 240 240 238 237 236 234 234 234
265 264 264 264 263 263 263 263 263 262 261 261 261 260 260 259 258 257 256 256 256 256 256 256 256 255 254 254 254 253 252 252 252 250 250 250 249 248 246 244 243 242 240 238 237 239 237 235 235 234 234 233
264 264 264 263 263 262 262 262 262 262 261 261 261 260 259 259 258 257 256 256 255 255 255 255 255 254 254 254 253 253 252 251 251 250 249 249 248 248 247 245 243 241 240 238 235 236 237 235 234 233 233 233
263 263 262 262 261 261 261 261 261 261 261 260 260 260 259 259 258 257 256 255 255 255 254 254 254 254 253 253 253 252 251 250 250 249 249 248 247 247 247 246 244 241 240 239 236 235 236 234 233 233 233 232
262 261 261 261 260 260 259 259 259 259 259 259 259 259 259 259 258 258 257 256 255 255 254 254 254 254 253 252 252 252 251 250 249 248 248 248 247 246 245 245 244 241 240 240 238 236 235 234 233 233 233 233
263 262 261 260 259 259 259 259 258 258 258 258 258 258 258 258 258 258 258 257 255 254 254 254 254 254 254 253 252 251 251 250 249 248 247 247 247 246 245 244 243 242 240 240 240 238 236 235 233 233 233 233
264 263 262 261 259 258 258 258 258 257 257 257 256 256 256 257 257 257 257 257 256 255 254 253 254 255 254 253 252 252 251 250 249 248 247 247 247 246 245 244 243 241 240 240 241 240 238 236 234 233 232 232
263 263 262 262 261 259 258 257 256 256 256 256 256 255 255 255 255 256 256 256 256 256 255 254 253 254 254 254 253 252 252 251 250 249 248 247 247 246 245 244 243 241 239 239 240 241 240 238 236 234 233 232
261 260 260 260 260 259 258 257 255 255 254 254 254 254 254 253 253 254 254 254 254 254 255 255 254 253 253 253 253 253 252 252 252 251 249 247 247 246 246 245 244 242 240 239 239 240 240 239 238 236 234 233
260 259 258 258 258 257 257 257 256 255 254 253 253 253 253 253 252 252 252 252 252 252 252 253 253 253 252 252 252 253 252 251 251 251 250 248 247 246 246 245 244 243 241 240 239 239 239 239 239 237 236 235
259 258 257 256 256 255 255 255 255 255 255 255 254 253 253 253 252 252 251 250 250 251 251 251 251 251 251 251 251 252 252 251 250 250 250 249 248 246 245 245 244 244 243 242 240 240 239 239 239 238 237 236
258 257 257 256 255 254 254 253 253 254 254 254 254 254 253 253 253 252 252 251 250 250 249 250 250 250 250 250 250 250 251 251 250 250 250 250 249 247 245 244 244 243 243 243 242 241 240 239 239 239 238 237
259 258 257 257 256 255 255 254 253 252 252 252 252 252 252 252 252 252 252 251 251 250 249 249 249 249 250 250 250 249 249 250 250 250 249 249 249 248 247 245 244 243 243 243 243 242 241 240 239 239 238 238
260 259 258 257 256 256 256 255 254 253 252 251 251 251 251 251 251 251 251 251 251 250 250 249 249 248 249 249 249 249 249 249 249 249 249 248 248 248 247 246 245 244 243 242 242 243 242 241 240 239 238 237
260 259 258 257 256 255 255 254 254 254 253 252 252 251 251 251 251 250 250 250 250 249 249 249 249 248 248 248 248 249 249 248 248 249 248 248 248 247 247 246 245 244 243 242 241 241 242 242 241 240 239 238
261 260 259 257 256 255 254 253 253 253 254 254 253 253 252 252 251 251 251 250 250 249 248 248 248 248 248 247 247 248 248 248 248 248 248 247 247 247 246 246 245 244 243 242 241 240 240 241 241 241 241 240
264 263 261 260 259 257 256 254 254 253 252 252 252 252 252 252 252 252 252 252 251 250 249 248 247 247 247 247 247 247 247 247 248 248 248 247 247 247 246 246 245 244 242 242 242 240 239 240 240 240 240 240
266 265 264 264 262 261 259 258 256 254 252 251 250 250 251 251 252 253 253 253 253 252 251 249 248 247 246 246 246 246 246 246 246 247 247 247 247 247 246 245 245 245 244 242 241 240 239 238 239 238 238 239
268 267 266 265 264 263 262 261 259 257 255 253 251 250 249 249 250 251 251 252 253 253 253 251 250 249 248 246 246 245 245 245 245 245 246 247 246 246 246 246 245 244 244 243 240 238 238 238 238 238 237 237
270 269 268 266 266 265 264 263 262 260 259 257 255 253 251 250 249 248 249 249 250 251 252 252 251 250 248 248 246 245 245 245 244 244 244 245 246 245 245 245 245 244 244 244 242 239 237 237 237 238 237 237
272 271 270 268 267 267 266 266 265 263 262 260 259 257 256 253 251 249 248 248 248 248 248 250 251 251 250 248 247 246 245 244 244 244 244 243 244 245 244 244 244 244 244 242 243 242 239 237 237 238 238 237
275 274 272 271 270 269 268 268 267 265 264 263 262 261 259 258 255 253 251 249 248 247 246 246 247 249 250 249 248 246 246 245 244 244 244 243 243 243 243 243 242 243 242 241 241 243 242 239 237 237 237 237
277 276 275 273 272 271 270 269 268 267 266 265 264 263 262 261 259 257 255 253 250 249 247 245 244 245 247 249 249 247 246 245 244 244 244 244 243 242 242 241 241 241 242 241 240 242 242 241 238 236 237 237
279 278 276 275 274 273 272 271 270 269 268 267 266 265 264 263 261 260 258 256 254 252 250 247 246 244 243 244 247 248 247 245 244 243 243 243 243 243 242 241 240 240 241 241 240 239 239 240 240 239 238 239
280 279 278 276 275 274 273 272 271 271 270 269 268 266 265 264 263 261 260 258 256 255 253 250 248 247 244 242 242 244 246 246 244 243 242 242 242 242 243 242 240 239 239 239 239 238 237 235 237 240 241 240
282 281 279 278 276 274 273 273 272 272 271 269 268 267 266 265 264 262 261 259 258 256 254 253 251 249 247 245 242 241 242 244 245 244 242 241 241 241 241 242 241 239 238 238 238 238 237 234 232 234 236 237
282 281 280 279 277 276 275 274 273 272 271 269 268 267 265 264 263 262 261 259 258 256 255 253 251 250 249 247 246 243 240 240 242 243 243 241 240 239 239 240 241 240 239 238 237 237 237 235 232 230 230 232